Weather History for Yuma MCAS, AZ

Change the Weather History Date:

Wednesday, February 6, 2013

  Actual Average Record
Temperature  
Mean Temperature 66 °F 61 °F  
Max Temperature 75 °F 72 °F 91 °F (1963)
Min Temperature 56 °F 49 °F 32 °F (1936)
Degree Days  
Heating Degree Days 0 5  
Month to date heating degree days 3 30  
Since 1 July heating degree days 524 538  
Cooling Degree Days 1 1  
Month to date cooling degree days 3 5  
Year to date cooling degree days 6 11  
Growing Degree Days 15 (Base 50)    
Moisture  
Dew Point 40 °F    
Average Humidity 40    
Maximum Humidity 57    
Minimum Humidity 23    
Precipitation  
Precipitation 0.00 in 0.02 in 0.44 in (1992)
Month to date precipitation T 0.08  
Year to date precipitation 1.02 0.45  
Sea Level Pressure  
Sea Level Pressure 29.92 in    
Wind  
Wind Speed 3 mph (SSW)    
Max Wind Speed 10 mph    
Max Gust Speed 26 mph    
Visibility 10 miles    
Events      
T = Trace of Precipitation, MM = Missing Value Source: NWS Daily Summary

Daily Weather History Graph

Daily Weather History Graph

Search for Another Location

Airport:

Trip Planner

Search our weather history database for the weather conditions in past years. The results will help you decide how hot, cold, wet, or windy it might be!

Date:

Astronomy

Feb. 06, 2013 Rise Set
Actual Time 7:29 AM MST 6:16 PM MST
Civil Twilight 7:03 AM MST 6:41 PM MST
Nautical Twilight 6:34 AM MST 7:11 PM MST
Astronomical Twilight 6:05 AM MST 7:39 PM MST
Moon 4:10 AM MST (2/6) 2:45 PM MST (2/6)
Length of Visible Light 11h 38m
Length of Day
10h 47m
Waning Crescent, 16% of the Moon is Illuminated
Feb 6
Waning Crescent
Feb 10
New
Feb 17
First Quarter
Feb 25
Full
Mar 4
Last Quarter

Hourly Weather History & Observations

Time (MST) Temp. Dew Point Humidity Pressure Visibility Wind Dir Wind Speed Gust Speed Precip Events Conditions
12:55 AM 59.0 °F 39.9 °F 49% 29.89 in 10.0 mi Calm Calm - N/A   Mostly Cloudy
1:55 AM 59.0 °F 42.1 °F 53% 29.89 in 10.0 mi SSE 3.5 mph - N/A   Mostly Cloudy
2:55 AM 59.0 °F 42.1 °F 53% 29.88 in 10.0 mi Calm Calm - N/A   Mostly Cloudy
3:55 AM 59.0 °F 42.1 °F 53% 29.88 in 10.0 mi SSE 3.5 mph - N/A   Mostly Cloudy
4:55 AM 57.9 °F 41.0 °F 53% 29.87 in 10.0 mi Calm Calm - N/A   Mostly Cloudy
5:55 AM 57.0 °F 39.9 °F 53% 29.86 in 10.0 mi SSE 4.6 mph - N/A   Mostly Cloudy
6:55 AM 57.0 °F 37.9 °F 49% 29.87 in 10.0 mi Calm Calm - N/A   Mostly Cloudy
7:55 AM 55.9 °F 37.0 °F 49% 29.90 in 10.0 mi Calm Calm - N/A   Scattered Clouds
8:55 AM 64.9 °F 37.0 °F 36% 29.91 in 10.0 mi Calm Calm - N/A   Scattered Clouds
9:55 AM 64.9 °F 37.9 °F 37% 29.93 in 7.0 mi South 5.8 mph - N/A   Partly Cloudy
10:55 AM 68.0 °F 39.0 °F 35% 29.94 in 10.0 mi South 6.9 mph - N/A   Partly Cloudy
11:55 AM 70.0 °F 39.0 °F 32% 29.95 in 10.0 mi South 5.8 mph - N/A   Partly Cloudy
12:55 PM 72.0 °F 39.0 °F 30% 29.94 in 10.0 mi WNW 4.6 mph - N/A   Clear
1:55 PM 73.0 °F 36.0 °F 26% 29.92 in 10.0 mi West 3.5 mph - N/A   Clear
2:55 PM 73.9 °F 34.0 °F 23% 29.91 in 10.0 mi SW 3.5 mph - N/A   Clear
3:55 PM 75.0 °F 37.0 °F 25% 29.90 in 10.0 mi West 5.8 mph - N/A   Clear
4:55 PM 73.9 °F 37.0 °F 26% 29.91 in 10.0 mi West 4.6 mph - N/A   Clear
5:55 PM 72.0 °F 39.0 °F 30% 29.93 in 10.0 mi WSW 3.5 mph - N/A   Clear
6:55 PM 70.0 °F 39.9 °F 33% 29.94 in 10.0 mi Calm Calm - N/A   Clear
7:55 PM 66.9 °F 41.0 °F 39% 29.96 in 10.0 mi Calm Calm - N/A   Clear
8:55 PM 63.0 °F 44.1 °F 50% 29.97 in 10.0 mi Calm Calm - N/A   Clear
9:55 PM 61.0 °F 44.1 °F 54% 29.99 in 10.0 mi Calm Calm - N/A   Clear
10:55 PM 57.9 °F 43.0 °F 58% 30.00 in 10.0 mi Calm Calm - N/A   Clear
11:55 PM 55.9 °F 45.0 °F 67% 30.01 in 10.0 mi SSE 8.1 mph - N/A   Clear